Regional Weather Roundup
Issued by NWS

Home | Current Version | Previous Version | Graphics & Text | Print | Product List | Glossary On
Versions: 1 2 3 4 5 6 7 8 9 10 11 12 13 14 15 16 17 18 19 20 21 22 23 24 25 26 27 28 29 30 31 32 33 34 35 36 37 38 39 40 41 42 43 44 45 46 47 48 49 50
317
ASUS44 KJAN 181803
RWRMS

MISSISSIPPI HOURLY WEATHER ROUNDUP
NATIONAL WEATHER SERVICE JACKSON MS
1200 PM CST THU DEC 18 2014

NOTE: "FAIR: INDICATES FEW OR NO CLOUDS BELOW 12,000 FEET WITH NO
SIGNIFICANT WEATHER AND/OR OBSTRUCTIONS TO VISIBILITY.

MSZ001>002-007>008-010>013-018>021-025>028-034>036-181900-
NORTHWEST MISSISSIPPI

CITY           SKY/WX    TMP DP  RH WIND       PRES   REMARKS
CLARKSDALE     CLOUDY    45  41  87 E5        30.22F
CLEVELAND      CLOUDY    47  43  86 E5        30.20F
GREENWOOD      CLOUDY    48  41  76 CALM      30.21F
6HR MIN TEMP:  42; 6HR MAX TEMP:  49; 6HR PCP:  0.03;

GREENVILLE     CLOUDY    48  43  82 SE6       30.19F
6HR MIN TEMP:  42; 6HR MAX TEMP:  48; 6HR PCP: TRACE;

GRENADA        CLOUDY    45  37  76 CALM      30.22F
OLIVE BRANCH   CLOUDY    39  39 100 CALM      30.22F
OXFORD         PTSUNNY   43  34  70 CALM      30.22F
TUNICA         MOCLDY    43  37  81 NE3       30.23F
$$

MSZ003>006-009-014>017-022>024-029>033-037>039-181900-
NORTHEAST MISSISSIPPI

CITY           SKY/WX    TMP DP  RH WIND       PRES   REMARKS
COLUMBUS AFB   CLOUDY    46  34  63 NW5       30.22F
6HR MIN TEMP:  41; 6HR MAX TEMP:  46; 6HR PCP: TRACE;

CORINTH        CLOUDY    43  36  75 CALM      30.22F
GOLDN TRIANGLE CLOUDY    46  34  61 S3        30.21F
STARKVILLE     CLOUDY    45  36  70 CALM      30.20F
TUPELO         CLOUDY    44  35  70 CALM      30.22F
6HR MIN TEMP:  40; 6HR MAX TEMP:  44; 6HR PCP:  0.02;

$$

MSZ040-058-181900-
CENTRAL MISSISSIPPI

CITY           SKY/WX    TMP DP  RH WIND       PRES   REMARKS
JACKSON INTL   CLOUDY    47  44  90 NE3       30.19F
6HR MIN TEMP:  45; 6HR MAX TEMP:  49; 6HR PCP:  0.03;

JACKSON HAWKNS CLOUDY    47  43  86 E7        30.19F
6HR MIN TEMP:  45; 6HR MAX TEMP:  48; 6HR PCP:  0.03;

MERIDIAN KEY   CLOUDY    50  37  61 N5        30.19F
6HR MIN TEMP:  41; 6HR MAX TEMP:  52;

MERIDIAN NAS   NOT AVBL
RAYMOND        CLOUDY    48  45  87 E3        30.19F
VICKSBURG      CLOUDY    50  44  80 E8        30.18F
6HR MIN TEMP:  47; 6HR MAX TEMP:  50; 6HR PCP:  0.06;

$$

MSZ059>079-181900-
SOUTH MISSISSIPPI

CITY           SKY/WX    TMP DP  RH WIND       PRES   REMARKS
HATTIESBURG    MOSUNNY   61  42  49 NE5       30.17F
6HR MIN TEMP:  44; 6HR MAX TEMP:  61;

MCCOMB         CLOUDY    59  46  62 SE5       30.14F
6HR MIN TEMP:  46; 6HR MAX TEMP:  60;

NATCHEZ        CLOUDY    48  45  87 NE5       30.17F
6HR MIN TEMP:  48; 6HR MAX TEMP:  52; 6HR PCP:  0.20;

PINE BELT      PTSUNNY   55  39  54 E6        30.18F
6HR MIN TEMP:  43; 6HR MAX TEMP:  55;

$$

MSZ080>082-181900-
COASTAL MISSISSIPPI

CITY           SKY/WX    TMP DP  RH WIND       PRES   REMARKS
BAY ST LOUIS   MOSUNNY   61  39  44 E9        30.17F
BILOXI         SUNNY     61  44  53 SE6       30.17F
6HR MIN TEMP:  44; 6HR MAX TEMP:  61;

PASCAGOULA     SUNNY     63  41  44 VRB6      30.16F
6HR MIN TEMP:  37; 6HR MAX TEMP:  63;

GULFPORT       SUNNY     60  41  49 SE7       30.17F
6HR MIN TEMP:  43; 6HR MAX TEMP:  60;

$$



USA.gov is the U.S. government's official web portal to all federal, state and local government web resources and services.